Retour au catalogue

STARLINK-34980

ActifCommunicationsSSO
NORAD 65258·PAYLOAD·🇺🇸 United States

Lancé Aug 18, 2025 depuis Vandenberg Space Force Base

Loading…

Prochains Passages (prochaines 24 heures)

TLE

FraisSource: CelesTrak SupGP

Époque: Sep 15, 2026, 02:21 UTC

1 65258C 25179Z   26258.09840278  .00013077  00000+0  40585-3 0  2581
2 65258  97.2834 297.4123 0001347  87.1815 109.8632 15.33440169    10

Suivez STARLINK-34980 en temps réel avec AllMySat

Download on the App Store